Change the Weather History Date:

Monday, December 24, 2012

  Actual Average Record
Temperature  
Mean Temperature 18 °F -  
Max Temperature 25 °F 25 °F 50 °F (1955)
Min Temperature 10 °F 9 °F -24 °F (1983)
Degree Days  
Heating Degree Days 48    
Moisture  
Dew Point 14 °F    
Average Humidity 80    
Maximum Humidity 88    
Minimum Humidity 74    
Precipitation  
Precipitation 0.00 in - - ()
Sea Level Pressure  
Sea Level Pressure 30.03 in    
Wind  
Wind Speed 4 mph (North)    
Max Wind Speed 10 mph    
Max Gust Speed -    
Visibility 10 miles    
Events      
Averages and records for this station are not official NWS values.
T = Trace of Precipitation, MM = Missing Value Source: NWS Daily Summary

Daily Weather History Graph

Daily Weather History Graph

Search for Another Location

Airport or City:

Trip Planner

Search our weather history database for the weather conditions in past years. The results will help you decide how hot, cold, wet, or windy it might be!

Date:

Astronomy

Dec. 24, 2012 Rise Set
Actual Time 7:26 AM CST 4:21 PM CST
Civil Twilight 6:53 AM CST 4:54 PM CST
Nautical Twilight 6:16 AM CST 5:30 PM CST
Astronomical Twilight 5:41 AM CST 6:05 PM CST
Moon 1:51 PM CST (12/24) 4:01 AM CST (12/24)
Length of Visible Light 10h 01m
Length of Day
8h 55m
Waxing Gibbous, 88% of the Moon is Illuminated
Dec 24
Waxing Gibbous
Dec 28
Full
Jan 4
Last Quarter
Jan 11
New
Jan 18
First Quarter

Hourly Weather History & Observations

Time (CST) Temp. Windchill Dew Point Humidity Pressure Visibility Wind Dir Wind Speed Gust Speed Precip Events Conditions
12:53 AM 10.0 °F - 6.1 °F 84% 30.05 in 10.0 mi Calm Calm - N/A   Clear
1:53 AM 10.0 °F - 5.0 °F 80% 30.02 in 10.0 mi Calm Calm - N/A   Scattered Clouds
2:03 AM 10.4 °F - 6.8 °F 85% 29.98 in 10.0 mi Calm Calm - N/A   Mostly Cloudy
2:53 AM 12.0 °F - 9.0 °F 88% 30.01 in 10.0 mi Calm Calm - N/A   Overcast
3:53 AM 15.1 °F - 10.9 °F 84% 30.01 in 10.0 mi Calm Calm - N/A   Overcast
4:53 AM 16.0 °F - 12.0 °F 84% 30.00 in 10.0 mi Calm Calm - N/A   Overcast
5:53 AM 17.1 °F 11.7 °F 12.9 °F 84% 30.01 in 10.0 mi NNW 3.5 mph - N/A   Overcast
6:53 AM 19.9 °F 13.4 °F 16.0 °F 85% 30.01 in 10.0 mi North 4.6 mph - N/A   Overcast
7:10 AM 19.4 °F 10.4 °F 15.8 °F 86% 29.95 in 10.0 mi North 6.9 mph - N/A   Overcast
7:41 AM 21.2 °F 14.9 °F 15.8 °F 80% 29.95 in 10.0 mi North 4.6 mph - N/A   Overcast
7:53 AM 21.0 °F 14.6 °F 17.1 °F 85% 30.01 in 10.0 mi North 4.6 mph - N/A   Overcast
8:53 AM 23.0 °F 14.7 °F 17.1 °F 78% 30.00 in 10.0 mi North 6.9 mph - N/A   Overcast
9:53 AM 23.0 °F 14.7 °F 17.1 °F 78% 30.00 in 10.0 mi NNE 6.9 mph - N/A   Overcast
10:53 AM 25.0 °F 18.1 °F 18.0 °F 75% 30.00 in 10.0 mi NNE 5.8 mph - N/A   Overcast
11:42 AM 24.8 °F 19.1 °F 17.6 °F 74% 29.95 in 10.0 mi North 4.6 mph - N/A   Overcast
11:53 AM 25.0 °F 17.1 °F 18.0 °F 75% 29.99 in 10.0 mi North 6.9 mph - N/A   Overcast
12:08 PM 24.8 °F 16.1 °F 17.6 °F 74% 29.94 in 10.0 mi NNE 8.1 mph - N/A   Overcast
12:53 PM 23.0 °F 12.4 °F 17.1 °F 78% 29.99 in 10.0 mi North 10.4 mph - N/A   Overcast
1:53 PM 24.1 °F 15.2 °F 18.0 °F 77% 30.00 in 10.0 mi North 8.1 mph - N/A   Overcast
2:21 PM 23.0 °F 13.9 °F 15.8 °F 74% 29.95 in 10.0 mi NNW 8.1 mph - N/A   Overcast
2:53 PM 23.0 °F 12.4 °F 16.0 °F 74% 30.00 in 10.0 mi North 10.4 mph - N/A   Overcast
3:53 PM 23.0 °F 13.9 °F 17.1 °F 78% 30.02 in 10.0 mi North 8.1 mph - N/A   Overcast
4:17 PM 23.0 °F 12.4 °F 17.6 °F 80% 29.98 in 10.0 mi North 10.4 mph - N/A   Overcast
4:53 PM 21.9 °F 11.7 °F 17.1 °F 82% 30.03 in 10.0 mi North 9.2 mph - N/A   Overcast
5:19 PM 21.2 °F 12.6 °F 17.6 °F 86% 30.00 in 10.0 mi North 6.9 mph - N/A   Overcast
5:48 PM 21.2 °F 12.6 °F 15.8 °F 80% 30.03 in 10.0 mi NNW 6.9 mph - N/A   Overcast
5:53 PM 21.9 °F 13.4 °F 15.1 °F 75% 30.07 in 10.0 mi NNW 6.9 mph - N/A   Overcast
6:53 PM 21.0 °F - 15.1 °F 78% 30.09 in 10.0 mi Calm Calm - N/A   Overcast
7:53 PM 19.9 °F - 16.0 °F 85% 30.11 in 10.0 mi Calm Calm - N/A   Overcast
8:53 PM 19.0 °F 12.3 °F 15.1 °F 85% 30.12 in 10.0 mi NW 4.6 mph - N/A   Overcast
9:53 PM 19.0 °F 10.0 °F 14.0 °F 81% 30.14 in 10.0 mi WNW 6.9 mph - N/A   Overcast
10:17 PM 19.4 °F 10.4 °F 12.2 °F 74% 30.10 in 10.0 mi WNW 6.9 mph - N/A   Overcast
10:30 PM 17.6 °F 8.2 °F 12.2 °F 79% 30.11 in 10.0 mi WNW 6.9 mph - N/A   Overcast
10:53 PM 16.0 °F 7.4 °F 10.9 °F 81% 30.16 in 10.0 mi WNW 5.8 mph - N/A   Partly Cloudy
11:53 PM 15.1 °F 4.2 °F 10.0 °F 80% 30.17 in 10.0 mi NW 8.1 mph - N/A   Clear